Weather History for Indiana, PA

Change the Weather History Date:

Tuesday, March 5, 2013

  Actual Average Record
Temperature  
Mean Temperature 27 °F -  
Max Temperature 42 °F 48 °F 76 °F (1992)
Min Temperature 12 °F 28 °F 9 °F (1978)
Degree Days  
Heating Degree Days 38    
Moisture  
Dew Point 19 °F    
Average Humidity 73    
Maximum Humidity 100    
Minimum Humidity 27    
Precipitation  
Precipitation 0.00 in - - ()
Sea Level Pressure  
Sea Level Pressure 29.92 in    
Wind  
Wind Speed 3 mph (East)    
Max Wind Speed 16 mph    
Max Gust Speed 24 mph    
Visibility 10 miles    
Events      
Averages and records for this station are not official NWS values.
T = Trace of Precipitation, MM = Missing Value Source: NWS Daily Summary

Daily Weather History Graph

Daily Weather History Graph

Search for Another Location

Airport:

Trip Planner

Search our weather history database for the weather conditions in past years. The results will help you decide how hot, cold, wet, or windy it might be!

Date:

Astronomy

Mar. 05, 2013 Rise Set
Actual Time 6:43 AM EST 6:12 PM EST
Civil Twilight 6:16 AM EST 6:39 PM EST
Nautical Twilight 5:44 AM EST 7:11 PM EST
Astronomical Twilight 5:13 AM EST 7:43 PM EST
Moon 1:55 AM EST (3/5) 11:48 AM EST (3/5)
Length of Visible Light 12h 23m
Length of Day
11h 28m
Last Quarter, 41% of the Moon is Illuminated
Mar 5
Last Quarter
Mar 11
New
Mar 19
First Quarter
Mar 27
Full
Apr 3
Last Quarter

Hourly Weather History & Observations

Time (EST) Temp. Windchill Dew Point Humidity Pressure Visibility Wind Dir Wind Speed Gust Speed Precip Events Conditions
12:15 AM 19.4 °F - 19.4 °F 100% 30.04 in 10.0 mi Calm Calm - N/A   Unknown
12:35 AM 21.2 °F - 19.4 °F 93% 30.03 in 10.0 mi Calm Calm - N/A   Unknown
12:55 AM 19.4 °F - 19.4 °F 100% 30.04 in 10.0 mi Calm Calm - N/A   Unknown
1:15 AM 17.6 °F - 17.6 °F 100% 30.04 in 10.0 mi Calm Calm - N/A   Unknown
1:35 AM 17.6 °F - 17.6 °F 100% 30.05 in 10.0 mi Calm Calm - N/A   Unknown
1:55 AM 17.6 °F - 17.6 °F 100% 30.05 in 10.0 mi Calm Calm - N/A   Unknown
2:15 AM 17.6 °F - 15.8 °F 93% 30.05 in 10.0 mi Calm Calm - N/A   Unknown
2:55 AM 15.8 °F - 15.8 °F 100% 30.05 in 10.0 mi Calm Calm - N/A   Unknown
3:15 AM 15.8 °F - 15.8 °F 100% 30.04 in 10.0 mi Calm Calm - N/A   Unknown
3:35 AM 15.8 °F - 15.8 °F 100% 30.04 in 10.0 mi Calm Calm - N/A   Unknown
3:55 AM 14.0 °F - 14.0 °F 100% 30.04 in 10.0 mi Calm Calm - N/A   Unknown
4:15 AM 12.2 °F - 12.2 °F 100% 30.04 in 10.0 mi Calm Calm - N/A   Unknown
4:35 AM 14.0 °F - 14.0 °F 100% 30.04 in 10.0 mi Calm Calm - N/A   Unknown
4:55 AM 14.0 °F - 14.0 °F 100% 30.04 in 10.0 mi Calm Calm - N/A   Unknown
5:15 AM 15.8 °F - 15.8 °F 100% 30.04 in 10.0 mi Calm Calm - N/A   Unknown
5:35 AM 14.0 °F - 14.0 °F 100% 30.04 in 10.0 mi Calm Calm - N/A   Unknown
5:55 AM 12.2 °F - 12.2 °F 100% 30.04 in 10.0 mi Calm Calm - N/A   Unknown
6:15 AM 12.2 °F - 12.2 °F 100% 30.04 in 10.0 mi Calm Calm - N/A   Unknown
6:35 AM 12.2 °F - 12.2 °F 100% 30.04 in 10.0 mi Calm Calm - N/A   Unknown
6:55 AM 12.2 °F 6.1 °F 12.2 °F 100% 30.03 in 10.0 mi East 3.5 mph - N/A   Unknown
7:15 AM 12.2 °F 1.7 °F 12.2 °F 100% 30.04 in 10.0 mi East 6.9 mph - N/A   Unknown
8:15 AM 15.8 °F 8.6 °F 15.8 °F 100% 30.03 in 10.0 mi East 4.6 mph - N/A   Unknown
8:35 AM 17.6 °F 10.7 °F 17.6 °F 100% 30.03 in 10.0 mi East 4.6 mph - N/A   Unknown
8:55 AM 17.6 °F 10.7 °F 17.6 °F 100% 30.02 in 10.0 mi East 4.6 mph - N/A   Unknown
9:15 AM 19.4 °F 12.8 °F 17.6 °F 93% 30.02 in 10.0 mi East 4.6 mph - N/A   Unknown
9:35 AM 21.2 °F 14.9 °F 17.6 °F 86% 30.01 in 10.0 mi East 4.6 mph - N/A   Unknown
9:55 AM 23.0 °F 18.4 °F 19.4 °F 86% 30.01 in 10.0 mi East 3.5 mph - N/A   Unknown
10:15 AM 24.8 °F - 19.4 °F 80% 30.01 in 10.0 mi Calm Calm - N/A   Unknown
10:35 AM 26.6 °F - 21.2 °F 80% 30.00 in 10.0 mi Calm Calm - N/A   Unknown
10:55 AM 28.4 °F - 19.4 °F 69% 30.00 in 10.0 mi Calm Calm - N/A   Unknown
11:15 AM 30.2 °F - 21.2 °F 69% 29.99 in 10.0 mi Calm Calm - N/A   Unknown
11:35 AM 30.2 °F - 21.2 °F 69% 30.00 in 10.0 mi Calm Calm - N/A   Unknown
11:55 AM 32.0 °F 28.7 °F 21.2 °F 64% 29.99 in 10.0 mi NE 3.5 mph - N/A   Unknown
12:15 PM 33.8 °F - 19.4 °F 56% 29.99 in 10.0 mi Calm Calm - N/A   Unknown
12:35 PM 33.8 °F - 19.4 °F 56% 29.97 in 10.0 mi Calm Calm - N/A   Unknown
12:55 PM 35.6 °F 32.8 °F 21.2 °F 56% 29.96 in 10.0 mi NNE 3.5 mph - N/A   Unknown
1:15 PM 37.4 °F 32.8 °F 19.4 °F 48% 29.94 in 10.0 mi ENE 5.8 mph - N/A   Unknown
1:35 PM 37.4 °F 32.8 °F 19.4 °F 48% 29.92 in 10.0 mi ENE 5.8 mph - N/A   Unknown
1:55 PM 37.4 °F 32.8 °F 19.4 °F 48% 29.91 in 10.0 mi East 5.8 mph - N/A   Unknown
2:15 PM 39.2 °F 33.6 °F 17.6 °F 42% 29.89 in 10.0 mi East 8.1 mph - N/A   Unknown
2:35 PM 41.0 °F 35.8 °F 17.6 °F 39% 29.88 in 10.0 mi East 8.1 mph - N/A   Unknown
2:55 PM 41.0 °F 36.4 °F 17.6 °F 39% 29.87 in 10.0 mi ENE 6.9 mph - N/A   Unknown
3:15 PM 42.8 °F 38.0 °F 15.8 °F 34% 29.86 in 10.0 mi ENE 8.1 mph - N/A   Unknown
3:35 PM 42.8 °F 38.0 °F 15.8 °F 34% 29.85 in 10.0 mi East 8.1 mph - N/A   Unknown
3:55 PM 42.8 °F 36.6 °F 10.4 °F 27% 29.84 in 10.0 mi ESE 11.5 mph - N/A   Unknown
4:15 PM 42.8 °F 36.6 °F 10.4 °F 27% 29.84 in 10.0 mi East 11.5 mph 16.1 mph N/A   Unknown
4:35 PM 42.8 °F 37.0 °F 12.2 °F 29% 29.83 in 10.0 mi East 10.4 mph - N/A   Unknown
4:55 PM 42.8 °F 36.6 °F 17.6 °F 36% 29.84 in 10.0 mi East 11.5 mph - N/A   Unknown
5:15 PM 41.0 °F 34.7 °F 19.4 °F 42% 29.84 in 10.0 mi East 10.4 mph - N/A   Unknown
5:35 PM 39.2 °F 33.0 °F 15.8 °F 39% 29.84 in 10.0 mi ESE 9.2 mph 17.3 mph N/A   Unknown
5:55 PM 39.2 °F 32.5 °F 19.4 °F 45% 29.82 in 10.0 mi East 10.4 mph - N/A   Unknown
6:15 PM 37.4 °F 30.3 °F 21.2 °F 52% 29.81 in 10.0 mi East 10.4 mph - N/A   Unknown
6:35 PM 37.4 °F 29.8 °F 23.0 °F 56% 29.80 in 10.0 mi East 11.5 mph 17.3 mph N/A   Unknown
6:55 PM 35.6 °F 28.0 °F 23.0 °F 60% 29.81 in 10.0 mi East 10.4 mph - N/A   Unknown
7:15 PM 35.6 °F 28.6 °F 23.0 °F 60% 29.81 in 10.0 mi ESE 9.2 mph - N/A   Unknown
7:35 PM 35.6 °F 28.6 °F 23.0 °F 60% 29.80 in 10.0 mi ESE 9.2 mph - N/A   Unknown
7:55 PM 33.8 °F 26.4 °F 24.8 °F 70% 29.79 in 10.0 mi ESE 9.2 mph - N/A   Unknown
8:15 PM 33.8 °F 25.8 °F 24.8 °F 70% 29.79 in 10.0 mi ESE 10.4 mph 18.4 mph N/A   Unknown
8:35 PM 33.8 °F 25.3 °F 24.8 °F 70% 29.77 in 10.0 mi ESE 11.5 mph - N/A   Unknown
8:55 PM 33.8 °F 25.3 °F 24.8 °F 70% 29.76 in 10.0 mi ESE 11.5 mph 20.7 mph N/A   Unknown
9:15 PM 33.8 °F 24.8 °F 24.8 °F 70% 29.75 in 10.0 mi ESE 12.7 mph 20.7 mph N/A   Unknown
9:35 PM 33.8 °F 23.5 °F 24.8 °F 70% 29.75 in 10.0 mi ESE 16.1 mph 20.7 mph N/A   Unknown
9:55 PM 33.8 °F 23.5 °F 24.8 °F 70% 29.74 in 10.0 mi East 16.1 mph 21.9 mph N/A   Unknown
10:15 PM 33.8 °F 24.3 °F 24.8 °F 70% 29.75 in 10.0 mi ESE 13.8 mph 18.4 mph N/A   Unknown
10:35 PM 33.8 °F 26.4 °F 24.8 °F 70% 29.74 in 10.0 mi ESE 9.2 mph 12.7 mph N/A   Unknown
10:55 PM 33.8 °F 25.8 °F 26.6 °F 75% 29.73 in 10.0 mi ESE 10.4 mph 18.4 mph N/A   Unknown
11:15 PM 33.8 °F 25.3 °F 26.6 °F 75% 29.73 in 10.0 mi ESE 11.5 mph 20.7 mph N/A   Unknown
11:35 PM 33.8 °F 24.3 °F 26.6 °F 75% 29.72 in 10.0 mi ESE 13.8 mph 24.2 mph N/A   Unknown
11:55 PM 33.8 °F 27.0 °F 26.6 °F 75% 29.71 in 10.0 mi ESE 8.1 mph 19.6 mph N/A   Unknown